Location: Dugenta
(41.1333°N, 14.4500°E)
Time: 13:19:49
(UTC+00:00)

CZ-2C R/B - Pass Details

Date: 03 March 2021
Orbit: 703 x 908 km, 98.1° (Epoch: 20 April)

Event Time Altitude Azimuth Distance (km) Brightness Sun altitude
Rises 17:18:38 0° 169° (SSE) 3,514 6.3 -5.2°
Reaches altitude 10° 17:21:04 10° 170° (S) 2,567 5.7 -5.6°
Maximum altitude 17:26:50 80° 257° (WSW) 898 3.5 -6.7°
Drops below altitude 10° 17:32:24 10° 345° (NNW) 2,487 5.8 -7.7°
Sets 17:34:44 0° 347° (NNW) 3,397 6.5 -8.2°
